Hourly Data Report for January 08, 2018

All times are specified in Local Standard Time (LST). Add 1 hour to adjust for Daylight Saving Time where and when it is observed.

BARRIE-ORO
ONTARIO

44°29'00.000" N
79°33'00.000" W
289.00 m
6117700
71314
XBI

Download Data

Hourly Data (January 2018)
Hourly Data Report for January 8, 2018
Temp Definition
°C
Dew Point Temp Definition
°C
Rel Hum Definition
%
Wind Dir Definition
10's deg

Wind Spd Definition
km/h
Visibility Definition
km
Stn Press Definition
kPa
Hmdx Definition


Wind Chill Definition


Weather Definition


TIME
00:00 -4.5 -7.7 78 23 12   97.82   -9 LegendNANA
01:00 -4.7 -6.8 85 22 8   97.77   -8 LegendNANA
02:00 -4.2 -6.1 87 19 4   97.71   -6 LegendNANA
03:00 -2.9 -5.3 84 22 14   97.64   -8 LegendNANA
04:00 -3.1 -4.2 93 21 11   97.59   -7 LegendNANA
05:00 -3.3 -4.2 94 18 9   97.52   -7 LegendNANA
06:00 -3.3 -4.1 95 17 9   97.44   -7 LegendNANA
07:00 -2.6 -3.4 95 20 15   97.35   -8 LegendNANA
08:00 -2.8 -3.6 94 20 10   97.27   -7 LegendNANA
09:00 -2.6 -3.4 95 20 9   97.24   -6 LegendNANA
10:00 -2.0 -2.8 94 21 7   97.24   -5 LegendNANA
11:00 -1.2 -2.2 93 23 12   97.22   -5 LegendNANA
12:00 -0.6 -1.4 94 24 10   97.16   -4 LegendNANA
13:00 -0.2 -1.4 91 24 13   97.15   -4 LegendNANA
14:00 0.0 -1.7 89 26 18   97.23   -5 LegendNANA
15:00 0.0 -1.9 87 26 18   97.27   -5 LegendNANA
16:00 0.0 -2.5 83 27 22   97.34   -6 LegendNANA
17:00 -0.1 -2.6 83 26 18   97.37   -5 LegendNANA
18:00 -0.2 -2.8 83 26 13   97.43   -4 LegendNANA
19:00 -0.1 -2.9 82 26 16   97.49   -5 LegendNANA
20:00 -0.4 -2.9 83 26 17   97.52   -5 LegendNANA
21:00 -0.6 -2.8 85 27 14   97.55   -5 LegendNANA
22:00 -0.8 -3.0 85 28 20   97.58   -6 LegendNANA
23:00 -0.7 -3.9 79 26 19   97.66   -6 LegendNANA

Notes on Data Quality.

Legend

  • E = Estimated
  • M = Missing
  • NA = Not Available
  • ‡ = Partner data that is not subject to review by the National Climate Archives
Date modified: